TimeCST,TemperatureF,Dew PointF,Humidity,Sea Level PressureIn,VisibilityMPH,Wind Direction,Wind SpeedMPH,Gust SpeedMPH,PrecipitationIn,Events,Conditions,WindDirDegrees,DateUTC
12:15 AM,19.0,14.4,82,29.92,10.0,NW,9.2,-,N/A,,Scattered Clouds,320,2012-12-11 06:15:00
12:35 AM,18.1,14.4,85,29.92,10.0,WNW,10.4,-,N/A,,Clear,290,2012-12-11 06:35:00
12:55 AM,16.2,12.9,87,29.92,10.0,West,10.4,-,N/A,,Clear,280,2012-12-11 06:55:00
1:15 AM,15.3,12.7,90,29.92,10.0,West,9.2,-,N/A,,Clear,280,2012-12-11 07:15:00
1:35 AM,15.3,12.6,89,29.92,10.0,West,5.8,-,N/A,,Clear,280,2012-12-11 07:35:00
1:55 AM,14.9,12.7,91,29.92,10.0,West,10.4,-,N/A,,Clear,280,2012-12-11 07:55:00
2:15 AM,16.2,13.1,88,29.91,10.0,West,12.7,-,N/A,,Clear,270,2012-12-11 08:15:00
2:35 AM,16.0,12.6,86,29.92,10.0,West,10.4,-,N/A,,Clear,270,2012-12-11 08:35:00
2:55 AM,15.3,11.3,84,29.92,10.0,West,10.4,-,N/A,,Clear,280,2012-12-11 08:55:00
3:15 AM,15.3,11.1,84,29.92,10.0,West,9.2,-,N/A,,Clear,270,2012-12-11 09:15:00
3:35 AM,15.6,10.4,80,29.91,10.0,West,11.5,-,N/A,,Clear,280,2012-12-11 09:35:00
3:55 AM,15.4,10.0,79,29.91,10.0,West,12.7,-,N/A,,Clear,280,2012-12-11 09:55:00
4:15 AM,15.1,10.2,81,29.90,10.0,West,10.4,-,N/A,,Clear,280,2012-12-11 10:15:00
4:35 AM,15.8,10.9,81,29.91,10.0,West,11.5,-,N/A,,Clear,270,2012-12-11 10:35:00
4:55 AM,13.5,8.4,80,29.91,10.0,West,5.8,-,N/A,,Scattered Clouds,280,2012-12-11 10:55:00
5:15 AM,11.3,7.3,84,29.91,10.0,West,8.1,-,N/A,,Scattered Clouds,260,2012-12-11 11:15:00
5:35 AM,11.1,7.0,83,29.91,10.0,WSW,9.2,-,N/A,,Clear,250,2012-12-11 11:35:00
5:55 AM,10.4,6.3,83,29.89,10.0,WSW,9.2,-,N/A,,Clear,240,2012-12-11 11:55:00
6:15 AM,10.0,6.1,84,29.90,10.0,WSW,8.1,-,N/A,,Clear,250,2012-12-11 12:15:00
6:35 AM,9.3,4.8,82,29.90,10.0,West,6.9,-,N/A,,Clear,260,2012-12-11 12:35:00
6:55 AM,8.1,3.9,83,29.90,10.0,West,5.8,-,N/A,,Clear,270,2012-12-11 12:55:00
7:15 AM,9.1,4.6,82,29.91,10.0,WSW,10.4,-,N/A,,Clear,250,2012-12-11 13:15:00
7:35 AM,14.2,8.1,77,29.90,10.0,West,9.2,-,N/A,,Clear,280,2012-12-11 13:35:00
7:55 AM,13.1,7.7,79,29.91,10.0,WNW,9.2,-,N/A,,Clear,290,2012-12-11 13:55:00
8:15 AM,11.7,7.5,83,29.91,10.0,WNW,8.1,-,N/A,,Mostly Cloudy,290,2012-12-11 14:15:00
8:35 AM,17.2,13.6,86,29.91,10.0,West,11.5,-,N/A,,Mostly Cloudy,260,2012-12-11 14:35:00
8:55 AM,18.1,14.0,84,29.91,10.0,WSW,10.4,-,N/A,,Scattered Clouds,250,2012-12-11 14:55:00
9:15 AM,20.7,16.0,82,29.91,10.0,WSW,12.7,-,N/A,,Clear,250,2012-12-11 15:15:00
9:35 AM,22.1,16.7,80,29.91,10.0,West,11.5,-,N/A,,Clear,260,2012-12-11 15:35:00
9:55 AM,23.9,18.0,78,29.90,10.0,WSW,11.5,-,N/A,,Clear,250,2012-12-11 15:55:00
10:15 AM,27.3,19.2,72,29.90,10.0,West,15.0,-,N/A,,Clear,260,2012-12-11 16:15:00
10:35 AM,29.1,18.1,64,29.90,10.0,WSW,15.0,-,N/A,,Clear,250,2012-12-11 16:35:00
10:55 AM,30.7,17.1,57,29.90,10.0,WSW,16.1,-,N/A,,Clear,250,2012-12-11 16:55:00
11:15 AM,31.3,16.7,55,29.90,10.0,WSW,13.8,-,N/A,,Clear,250,2012-12-11 17:15:00
11:35 AM,32.0,17.2,55,29.88,10.0,WSW,13.8,18.4,N/A,,Clear,250,2012-12-11 17:35:00
11:55 AM,34.0,15.8,47,29.87,10.0,West,9.2,-,N/A,,Clear,260,2012-12-11 17:55:00
12:15 PM,34.9,14.4,43,29.85,10.0,West,11.5,24.2,N/A,,Clear,270,2012-12-11 18:15:00
12:35 PM,35.8,15.4,44,29.83,10.0,WSW,15.0,-,N/A,,Clear,240,2012-12-11 18:35:00
12:55 PM,38.1,12.4,35,29.82,10.0,West,20.7,25.3,N/A,,Clear,280,2012-12-11 18:55:00
1:15 PM,39.2,12.0,33,29.80,10.0,WNW,20.7,27.6,N/A,,Clear,300,2012-12-11 19:15:00
1:35 PM,39.9,10.4,30,29.80,10.0,West,16.1,-,N/A,,Clear,280,2012-12-11 19:35:00
1:55 PM,41.2,8.6,26,29.79,10.0,West,17.3,25.3,N/A,,Clear,270,2012-12-11 19:55:00
2:15 PM,41.2,9.5,27,29.78,10.0,West,13.8,26.5,N/A,,Clear,270,2012-12-11 20:15:00
2:35 PM,41.0,10.4,29,29.77,10.0,West,12.7,19.6,N/A,,Clear,270,2012-12-11 20:35:00
2:55 PM,41.5,11.1,29,29.76,10.0,WSW,20.7,26.5,N/A,,Scattered Clouds,250,2012-12-11 20:55:00
3:15 PM,40.5,10.2,29,29.76,10.0,WSW,20.7,24.2,N/A,,Clear,250,2012-12-11 21:15:00
3:35 PM,40.3,8.8,27,29.76,10.0,WSW,18.4,25.3,N/A,,Clear,250,2012-12-11 21:35:00
3:55 PM,39.7,7.7,27,29.76,10.0,SW,19.6,24.2,N/A,,Clear,230,2012-12-11 21:55:00
4:15 PM,39.0,7.2,27,29.76,10.0,SW,16.1,21.9,N/A,,Clear,230,2012-12-11 22:15:00
4:35 PM,38.8,6.8,27,29.76,10.0,SW,13.8,-,N/A,,Clear,230,2012-12-11 22:35:00
4:55 PM,37.6,6.4,27,29.76,10.0,SW,12.7,-,N/A,,Clear,230,2012-12-11 22:55:00
5:15 PM,34.7,5.7,30,29.76,10.0,SW,11.5,-,N/A,,Clear,220,2012-12-11 23:15:00
5:35 PM,31.6,5.0,33,29.76,10.0,SW,9.2,-,N/A,,Clear,220,2012-12-11 23:35:00
5:55 PM,29.3,4.6,35,29.76,10.0,SSW,9.2,-,N/A,,Clear,210,2012-12-11 23:55:00
6:15 PM,26.1,4.5,40,29.77,10.0,WSW,5.8,-,N/A,,Clear,240,2012-12-12 00:15:00
6:35 PM,27.1,5.0,39,29.76,10.0,West,8.1,-,N/A,,Clear,260,2012-12-12 00:35:00
6:55 PM,26.4,5.2,40,29.77,10.0,SW,8.1,-,N/A,,Clear,230,2012-12-12 00:55:00
7:15 PM,26.6,5.5,41,29.77,10.0,WSW,8.1,-,N/A,,Clear,240,2012-12-12 01:15:00
7:35 PM,24.4,5.4,44,29.76,10.0,SW,8.1,-,N/A,,Clear,230,2012-12-12 01:35:00
7:55 PM,23.2,5.2,46,29.76,10.0,SW,4.6,-,N/A,,Clear,220,2012-12-12 01:55:00
8:15 PM,24.4,7.0,48,29.75,10.0,SSW,8.1,-,N/A,,Clear,200,2012-12-12 02:15:00
8:35 PM,25.7,9.3,50,29.75,10.0,SSW,13.8,-,N/A,,Clear,210,2012-12-12 02:35:00
8:55 PM,26.8,10.4,50,29.75,10.0,SSW,11.5,-,N/A,,Clear,200,2012-12-12 02:55:00
9:15 PM,25.2,10.9,55,29.74,10.0,SSW,6.9,-,N/A,,Clear,200,2012-12-12 03:15:00
9:35 PM,26.1,12.2,56,29.74,10.0,SW,8.1,-,N/A,,Clear,220,2012-12-12 03:35:00
9:55 PM,27.7,12.2,52,29.74,10.0,SW,12.7,-,N/A,,Clear,220,2012-12-12 03:55:00
10:15 PM,27.5,11.8,52,29.74,10.0,SW,9.2,-,N/A,,Clear,220,2012-12-12 04:15:00
10:35 PM,28.2,11.7,50,29.74,10.0,SW,10.4,-,N/A,,Clear,220,2012-12-12 04:35:00
10:55 PM,25.7,11.5,55,29.74,10.0,SW,10.4,-,N/A,,Clear,230,2012-12-12 04:55:00
11:15 PM,25.3,11.7,56,29.74,10.0,SW,10.4,-,N/A,,Clear,230,2012-12-12 05:15:00
11:35 PM,25.2,11.5,56,29.74,10.0,SW,10.4,-,N/A,,Clear,220,2012-12-12 05:35:00
11:55 PM,26.1,11.7,55,29.75,10.0,SW,10.4,-,N/A,,Clear,230,2012-12-12 05:55:00